Regional Weather Roundup
Issued by NWS Grand Forks, ND

Home | Current Version | Previous Version | Text Only | Print | Product List | Glossary Off
Versions: 1 2 3 4 5 6 7 8 9 10 11 12 13 14 15 16 17 18 19 20 21 22 23 24 25 26 27 28 29 30 31 32 33 34 35 36 37 38 39 40 41 42 43 44 45 46 47 48 49 50

915
ASUS43 KFGF 260010
RWRFGF
PRAIRIE TO PINES  WEATHER ROUNDUP
NATIONAL WEATHER SERVICE EASTERN NORTH DAKOTA/GRAND FORKS ND
700 PM CDT MON SEP 25 2017

 **SATELLITE DATA USED TO AUGMENT SKY COVER AT AUTOMATED STATIONS**
 *****  WEATHER ACROSS EASTERN NORTH DAKOTA  *****

CITY           SKY/WX    TMP DP  RH WIND       PRES   REMARKS
GRAND FORKS    CLOUDY    52  48  86 N8        30.12S
6HR MIN TEMP:  51; 6HR MAX TEMP:  54;

GRAND FRKS AFB CLOUDY    51  46  81 N7        30.13R
DEVILS LAKE    CLOUDY    50  41  71 NE6       30.15R
6HR MIN TEMP:  49; 6HR MAX TEMP:  51; 6HR PCP:  0.01;

FARGO          CLOUDY    53  48  83 N10       30.09S
WAHPETON ARPT  CLOUDY    50  45  81 N12       30.08S
$$

 ***** WEATHER ACROSS CENTRAL AND WESTERN NORTH DAKOTA  *****

CITY           SKY/WX    TMP DP  RH WIND       PRES   REMARKS
BISMARCK       CLOUDY    52  44  74 E9        30.13R
6HR MIN TEMP:  51; 6HR MAX TEMP:  54; 6HR PCP: TRACE;

MINOT          CLOUDY    53  43  68 NE5       30.13R
6HR MIN TEMP:  52; 6HR MAX TEMP:  55; 6HR PCP: TRACE;

JAMESTOWN      CLOUDY    50  43  77 N7        30.13R
6HR MIN TEMP:  49; 6HR MAX TEMP:  51;

MINOT AFB      CLOUDY    52  42  69 E3        30.12R
GARRISON         N/A     50  43  77 E6        30.13R
WILLISTON      LGT RAIN  48  46  93 SE5       30.13S
6HR MIN TEMP:  48; 6HR MAX TEMP:  54; 6HR PCP:  0.06;

DICKINSON      CLOUDY    47  43  86 CALM      30.10S
6HR MIN TEMP:  45; 6HR MAX TEMP:  47;

HETTINGER      CLOUDY    49  40  71 E5        30.12F
6HR MIN TEMP:  44; 6HR MAX TEMP:  50;

$$

 *****  OTHER AIRPORT OBSERVATIONS IN OUR AREA  *****

CITY           SKY/WX    TMP DP  RH WIND       PRES   REMARKS
WALHALLA       FAIR     N/A N/A N/A NE6       30.15R
GRAFTON AIRPOR CLOUDY    52  46  82 N6        30.15R
VALLEY CITY AR CLOUDY    50  48  93 NE9       30.14R
CANDO          CLOUDY    52  43  71 NE9       30.16R
CAVALIER APRT  MOCLDY    52  45  76 N6        30.13F
GWINNER        CLOUDY    50  46  87 N9        30.10S
ROLLA          CLOUDY    50  41  71 E8        30.15R
 ***** THE ABOVE OBSERVATIONS ARE NON NWS ARE NOT QUALITY
       CONTROLLED AND MAY MIS-REPORT RAIN FOR SNOW...
$$

  *****  WEATHER ACROSS NORTHERN MINNESOTA  *****

CITY           SKY/WX    TMP DP  RH WIND       PRES   REMARKS
FLAG ISLAND    MOCLDY    54  46  76 N9        30.11R
WARROAD        NOT AVBL
ROSEAU           N/A     52  46  82 N9        30.11S
HALLOCK          N/A     54  48  82 N9        30.12S
THF RVR FALLS  CLOUDY    53  47  79 NE7       30.11S
6HR MIN TEMP:  51; 6HR MAX TEMP:  54;

BAUDETTE       CLOUDY    52  50  93 N7        30.10R
6HR MIN TEMP:  52; 6HR MAX TEMP:  56; 6HR PCP: TRACE;

WASKISH        CLOUDY    52  48  87 N5        30.09R
CROOKSTON      CLOUDY    54  48  82 N8        30.11S
STEPHEN NDAWN    N/A     54  48  82 N8          N/A
GREENBUSH NDAW   N/A     54  46  76 N6          N/A
$$
  *****  WEATHER ACROSS CENTRAL AND WEST MINNESOTA  *****

CITY           SKY/WX    TMP DP  RH WIND       PRES   REMARKS
FOSSTON        CLOUDY    52  48  87 N8        30.09S
BEMIDJI        CLOUDY    52  50  92 N5        30.07R
6HR MIN TEMP:  51; 6HR MAX TEMP:  55;

PARK RAPIDS    CLOUDY    55  49  80 N10       30.06R
6HR MIN TEMP:  54; 6HR MAX TEMP:  58;

ELBOW LAKE     CLOUDY    54  50  87 N8        30.04F
WADENA         CLOUDY    54  48  82 N5        30.05S
DETROIT LAKES  MOCLDY    52  48  87 N5        30.09R
MOORHEAD       CLOUDY    52  48  87 N6        30.10R
FERGUS FALLS   CLOUDY    54  50  87 N8        30.05F
MORRIS MN      NOT AVBL
STAPLES        CLOUDY    55  48  76 N6        30.05R
$$
  *****  WEATHER ELSEWHERE ACROSS MINNESOTA  *****

CITY           SKY/WX    TMP DP  RH WIND       PRES   REMARKS
DULUTH         CLOUDY    56  55  97 N6        30.01S
6HR MIN TEMP:  55; 6HR MAX TEMP:  56; 6HR PCP:  0.02;

INTRNTL FALLS  CLOUDY    53  48  83 N5        30.07S
6HR MIN TEMP:  53; 6HR MAX TEMP:  57; 6HR PCP: TRACE;

ELY            CLOUDY    55  54  94 CALM      30.04R
CLOQUET        CLOUDY    55  52  88 N3        30.01F
WHEATON        DRIZZLE   50  46  87 N10       30.08F
BRAINERD       CLOUDY    56  52  86 N6        30.03S
6HR MIN TEMP:  55; 6HR MAX TEMP:  58;

HIBBING        CLOUDY    54  51  90 N8        30.04R
6HR MIN TEMP:  53; 6HR MAX TEMP:  56; 6HR PCP: TRACE;

ALEXANDRIA     CLOUDY    56  49  77 NE7       30.04S
6HR MIN TEMP:  56; 6HR MAX TEMP:  58;

SAINT CLOUD    LGT RAIN  57  54  89 NE3       30.01S
6HR MIN TEMP:  56; 6HR MAX TEMP:  58; 6HR PCP: TRACE;

MINNEAPOLIS    LGT RAIN  60  57  89 N10G23    29.97F
6HR MIN TEMP:  60; 6HR MAX TEMP:  63; 6HR PCP: TRACE;

$$

  *****  WEATHER ACROSS SOUTH DAKOTA  *****

CITY           SKY/WX    TMP DP  RH WIND       PRES   REMARKS
SIOUX FALLS    DRIZZLE   54  53  97 N7        30.01R FOG
6HR MIN TEMP:  54; 6HR MAX TEMP:  56; 6HR PCP:  0.08;

BROOKINGS      RAIN      52  48  87 N13       30.03R FOG
WATERTOWN      CLOUDY    50  48  93 N16       30.04R
6HR MIN TEMP:  50; 6HR MAX TEMP:  52;

HURON          CLOUDY    52  48  86 N9        30.04F
6HR MIN TEMP:  52; 6HR MAX TEMP:  54;

SISSETON         N/A     51  48  89 N12       30.06F
ABERDEEN       CLOUDY    51  45  79 N14       30.07F
6HR MIN TEMP:  49; 6HR MAX TEMP:  54;

MITCHELL       LGT RAIN  52  51  97 N9        30.03F
PIERRE         CLOUDY    52  44  74 N9        30.07F
6HR MIN TEMP:  52; 6HR MAX TEMP:  54;

MOBRIDGE       CLOUDY    53  45  74 NE3       30.09S
RAPID CITY     CLOUDY    52  43  71 E8        30.08F
$$

  *****  SOME WEATHER IN NEARBY STATES *****

CITY           SKY/WX    TMP DP  RH WIND       PRES   REMARKS
GLASGOW MT     CLOUDY    54  35  48 SE14      30.06R
6HR MIN TEMP:  54; 6HR MAX TEMP:  60;

GREAT FALLS MT PTSUNNY   60  31  33 W3        30.00F
6HR MIN TEMP:  57; 6HR MAX TEMP:  61;

CHEYENNE WY    CLOUDY    50  39  66 SE13      30.07S
6HR MIN TEMP:  46; 6HR MAX TEMP:  56;

SCOTTSBLUFF NE FAIR      55  42  61 SE10      30.06F
6HR MIN TEMP:  49; 6HR MAX TEMP:  58;

OMAHA NE       CLOUDY    63  60  90 N14       29.92F FOG
6HR MIN TEMP:  63; 6HR MAX TEMP:  69; 6HR PCP:  0.01;

DES MOINES IA  TSTM      68  66  93 NW10      29.91R FOG
6HR MIN TEMP:  67; 6HR MAX TEMP:  88; 6HR PCP:  0.95;

DAVENPORT IA   FAIR      77  64  64 S8        29.93R
6HR MIN TEMP:  77; 6HR MAX TEMP:  89; 6HR PCP: TRACE;

CHICAGO IL     FAIR      85  51  31 SE12      29.92R
6HR MIN TEMP:  85; 6HR MAX TEMP:  92;

EAU CLAIRE WI  CLOUDY    65  62  90 NW9       29.94R
6HR MIN TEMP:  66; 6HR MAX TEMP:  85; 6HR PCP:  1.13;

LA CROSSE WI   FAIR      72  67  84 SW5       29.92R
6HR MIN TEMP:  68; 6HR MAX TEMP:  88; 6HR PCP:  0.50;

$$

  *****  SOME NATIONAL WEATHER *****

CITY           SKY/WX    TMP DP  RH WIND       PRES   REMARKS
LA GUARDIA NY  FAIR      76  64  66 S9        30.03R
6HR MIN TEMP:  76; 6HR MAX TEMP:  86;

RALEIGH NC     MOCLDY    75  68  78 NE3       29.93S
6HR MIN TEMP:  75; 6HR MAX TEMP:  83;

ATLANTA GA     FAIR      81  59  47 E7        29.95R
6HR MIN TEMP:  80; 6HR MAX TEMP:  86;

NEW ORLEANS LA MOCLDY    82  70  66 E7        29.84S
6HR MIN TEMP:  82; 6HR MAX TEMP:  87;

OKLAHOMA CITY  TSTM      78  63  59 S10       29.87R
6HR MIN TEMP:  78; 6HR MAX TEMP:  85; 6HR PCP: TRACE;

ALBUQUERQUE NM FAIR      74  13   9 N12       29.92F
6HR MIN TEMP:  66; 6HR MAX TEMP:  75;

SALT LAKE CITY FAIR      60  36  40 N8        30.10S
6HR MIN TEMP:  54; 6HR MAX TEMP:  61;

LOS ANGELES CA FAIR      78  47  33 W16       29.78R
6HR MIN TEMP:  78; 6HR MAX TEMP:  85;

BOISE ID       FAIR      66  32  28 W9        30.06F
6HR MIN TEMP:  58; 6HR M



USA.gov is the U.S. government's official web portal to all federal, state and local government web resources and services.